When you browse on this site, cookies collect data to enhance your experience and personalize the content and advertising you see.
Visit our Privacy Policy to learn more. By continuing to use the site, you agree to this use of cookies and data.
  • In Spain
  • List of Countries
  • For 7 days
  • Water Temperature
  • Satellite Maps
  • Weather Map
  • Weather Widgets
  • user-avatar
    Login

    Hourly Weather Algiers

    Today, 14 December, Friday

    Time Temperature Precipitation Wind Pressure Humidity
    00:00 +8°C° 0.4 mm 10 mps 743 mmHg 74%
    01:00 +8°C° 0.6 mm 10 mps 742 mmHg 77%
    02:00 +8°C° 0.6 mm 10 mps 742 mmHg 80%
    03:00 +8°C° 0.6 mm 10 mps 741 mmHg 83%
    04:00 +8°C° 3.5 mm 10 mps 741 mmHg 86%
    05:00 +8°C° 3.5 mm 10 mps 741 mmHg 90%
    06:00 +8°C° 3.5 mm 10 mps 741 mmHg 94%
    07:00 +9°C° 3.2 mm 10 mps 742 mmHg 93%
    08:00 +9°C° 3.2 mm 10 mps 743 mmHg 93%
    09:00 +11°C° 3.2 mm 10 mps 744 mmHg 92%
    10:00 +11°C° 4.1 mm 10 mps 745 mmHg 93%
    11:00 +11°C° 4.1 mm 11 mps 745 mmHg 93%
    12:00 +11°C° 4.1 mm 11 mps 746 mmHg 93%
    13:00 +11°C° 3.1 mm 11 mps 747 mmHg 92%
    14:00 +11°C° 3.1 mm 10 mps 748 mmHg 91%
    15:00 +11°C° 3.1 mm 10 mps 749 mmHg 90%
    16:00 +11°C° 0.6 mm 9 mps 749 mmHg 90%
    17:00 +11°C° 0.6 mm 7 mps 750 mmHg 89%
    18:00 +11°C° 0.6 mm 6 mps 751 mmHg 89%
    19:00 +12°C° 0.3 mm 5 mps 752 mmHg 89%
    20:00 +12°C° 0.3 mm 5 mps 752 mmHg 90%
    21:00 +11°C° 0.3 mm 4 mps 753 mmHg 90%
    22:00 +11°C° 0.3 mm 4 mps 753 mmHg 90%
    23:00 +10°C° 0.3 mm 5 mps 753 mmHg 90%

    Tomorrow, 15 December, Saturday

    Time Temperature Precipitation Wind Pressure Humidity
    00:00 +10°C° 0.3 mm 5 mps 753 mmHg 90%
    01:00 +10°C° 0.2 mm 5 mps 753 mmHg 89%
    02:00 +11°C° 0.2 mm 4 mps 754 mmHg 89%
    03:00 +11°C° 0.2 mm 4 mps 754 mmHg 88%
    04:00 +9°C° 0.1 mm 5 mps 754 mmHg 87%
    05:00 +9°C° 0.1 mm 5 mps 754 mmHg 87%
    06:00 +9°C° 0.1 mm 6 mps 754 mmHg 86%
    07:00 +10°C° 0 mm 6 mps 754 mmHg 82%
    08:00 +10°C° 0 mm 6 mps 755 mmHg 77%
    09:00 +11°C° 0 mm 6 mps 755 mmHg 73%
    10:00 +12°C° 0 mm 7 mps 755 mmHg 70%
    11:00 +14°C° 0 mm 7 mps 755 mmHg 67%
    12:00 +15°C° 0 mm 7 mps 755 mmHg 63%
    13:00 +15°C° 0 mm 7 mps 755 mmHg 63%
    14:00 +15°C° 0 mm 6 mps 755 mmHg 63%
    15:00 +15°C° 0 mm 6 mps 755 mmHg 63%
    16:00 +14°C° 0 mm 6 mps 755 mmHg 66%
    17:00 +13°C° 0 mm 5 mps 755 mmHg 69%
    18:00 +12°C° 0 mm 5 mps 755 mmHg 72%
    19:00 +12°C° 0 mm 5 mps 755 mmHg 72%
    20:00 +12°C° 0 mm 4 mps 756 mmHg 71%
    21:00 +11°C° 0 mm 4 mps 756 mmHg 70%
    22:00 +12°C° 0 mm 4 mps 755 mmHg 69%
    23:00 +12°C° 0 mm 4 mps 755 mmHg 68%

    Day after tomorrow, 16 December, Sunday

    Time Temperature Precipitation Wind Pressure Humidity
    00:00 +12°C° 0 mm 3 mps 755 mmHg 66%
    01:00 +12°C° 0 mm 3 mps 755 mmHg 65%
    02:00 +12°C° 0 mm 3 mps 755 mmHg 63%
    03:00 +12°C° 0 mm 3 mps 754 mmHg 62%
    04:00 +12°C° 0 mm 3 mps 754 mmHg 61%
    05:00 +12°C° 0 mm 3 mps 754 mmHg 60%
    06:00 +12°C° 0 mm 3 mps 754 mmHg 60%
    07:00 +14°C° 0 mm 3 mps 754 mmHg 59%
    08:00 +16°C° 0 mm 3 mps 755 mmHg 58%
    09:00 +17°C° 0 mm 3 mps 755 mmHg 57%
    10:00 +19°C° 0 mm 3 mps 754 mmHg 52%
    11:00 +20°C° 0 mm 2 mps 754 mmHg 48%
    12:00 +23°C° 0 mm 2 mps 754 mmHg 43%
    13:00 +23°C° 0 mm 2 mps 754 mmHg 45%
    14:00 +23°C° 0 mm 2 mps 753 mmHg 47%
    15:00 +23°C° 0 mm 2 mps 753 mmHg 49%
    16:00 +20°C° 0 mm 2 mps 753 mmHg 51%
    17:00 +19°C° 0 mm 2 mps 753 mmHg 53%
    18:00 +17°C° 0 mm 3 mps 754 mmHg 55%
    19:00 +17°C° 0 mm 3 mps 754 mmHg 54%
    20:00 +17°C° 0 mm 3 mps 754 mmHg 53%
    21:00 +16°C° 0 mm 3 mps 755 mmHg 53%
    22:00 +16°C° 0 mm 3 mps 755 mmHg 52%
    23:00 +15°C° 0 mm 4 mps 755 mmHg 52%

    17 December, Monday

    Time Temperature Precipitation Wind Pressure Humidity
    00:00 +14°C° 0 mm 4 mps 755 mmHg 52%
    01:00 +14°C° 0 mm 3 mps 755 mmHg 53%
    02:00 +14°C° 0 mm 3 mps 755 mmHg 54%
    03:00 +13°C° 0 mm 3 mps 755 mmHg 55%
    04:00 +13°C° 0 mm 3 mps 755 mmHg 56%
    05:00 +13°C° 0 mm 3 mps 755 mmHg 57%
    06:00 +13°C° 0 mm 3 mps 755 mmHg 58%
    07:00 +15°C° 0 mm 2 mps 755 mmHg 56%
    08:00 +16°C° 0 mm 2 mps 756 mmHg 53%
    09:00 +18°C° 0 mm 1 mps 756 mmHg 51%
    10:00 +19°C° 0 mm 1 mps 756 mmHg 51%
    11:00 +18°C° 0 mm 2 mps 756 mmHg 52%
    12:00 +19°C° 0 mm 2 mps 756 mmHg 53%
    13:00 +19°C° 0 mm 2 mps 755 mmHg 55%
    14:00 +19°C° 0 mm 2 mps 755 mmHg 58%
    15:00 +19°C° 0 mm 2 mps 755 mmHg 61%
    16:00 +18°C° 0 mm 1 mps 755 mmHg 68%
    17:00 +16°C° 0 mm 1 mps 756 mmHg 75%
    18:00 +15°C° 0 mm 1 mps 756 mmHg 82%
    19:00 +15°C° 0 mm 1 mps 756 mmHg 83%
    20:00 +14°C° 0 mm 1 mps 757 mmHg 84%
    21:00 +14°C° 0 mm 1 mps 757 mmHg 86%
    22:00 +14°C° 0 mm 1 mps 757 mmHg 86%
    23:00 +13°C° 0 mm 2 mps 757 mmHg 86%

    18 December, Tuesday

    Time Temperature Precipitation Wind Pressure Humidity
    00:00 +13°C° 0 mm 2 mps 757 mmHg 87%
    01:00 +13°C° 0 mm 2 mps 757 mmHg 87%
    02:00 +13°C° 0 mm 2 mps 757 mmHg 87%
    03:00 +13°C° 0 mm 2 mps 757 mmHg 87%
    04:00 +13°C° 0 mm 2 mps 757 mmHg 86%
    05:00 +12°C° 0 mm 2 mps 757 mmHg 86%
    06:00 +12°C° 0 mm 2 mps 757 mmHg 85%
    07:00 +13°C° 0 mm 2 mps 757 mmHg 80%
    08:00 +14°C° 0 mm 3 mps 757 mmHg 76%
    09:00 +16°C° 0 mm 3 mps 758 mmHg 71%
    10:00 +17°C° 0 mm 3 mps 757 mmHg 64%
    11:00 +19°C° 0 mm 3 mps 757 mmHg 57%
    12:00 +20°C° 0 mm 3 mps 756 mmHg 50%
    13:00 +20°C° 0 mm 3 mps 756 mmHg 50%
    14:00 +20°C° 0 mm 3 mps 756 mmHg 50%
    15:00 +20°C° 0 mm 3 mps 755 mmHg 50%
    16:00 +19°C° 0 mm 3 mps 755 mmHg 54%
    17:00 +18°C° 0 mm 3 mps 756 mmHg 59%
    18:00 +15°C° 0 mm 4 mps 756 mmHg 63%
    19:00 +16°C° 0 mm 3 mps 756 mmHg 64%
    20:00 +16°C° 0 mm 3 mps 756 mmHg 64%
    21:00 +14°C° 0 mm 3 mps 756 mmHg 64%
    22:00 +14°C° 0 mm 3 mps 756 mmHg 65%
    23:00 +14°C° 0 mm 3 mps 756 mmHg 67%

    19 December, Wednesday

    Time Temperature Precipitation Wind Pressure Humidity
    00:00 +14°C° 0 mm 3 mps 755 mmHg 68%
    01:00 +13°C° 0 mm 3 mps 755 mmHg 69%
    02:00 +13°C° 0 mm 3 mps 755 mmHg 69%
    03:00 +13°C° 0 mm 4 mps 755 mmHg 70%
    04:00 +12°C° 0 mm 4 mps 755 mmHg 70%
    05:00 +12°C° 0 mm 4 mps 755 mmHg 70%
    06:00 +12°C° 0 mm 4 mps 755 mmHg 70%
    07:00 +13°C° 0 mm 4 mps 755 mmHg 67%
    08:00 +14°C° 0 mm 4 mps 755 mmHg 65%
    09:00 +15°C° 0 mm 4 mps 755 mmHg 62%
    10:00 +18°C° 0 mm 3 mps 755 mmHg 57%
    11:00 +19°C° 0 mm 3 mps 755 mmHg 51%
    12:00 +21°C° 0 mm 3 mps 754 mmHg 45%
    13:00 +21°C° 0 mm 2 mps 754 mmHg 45%
    14:00 +21°C° 0 mm 2 mps 753 mmHg 46%
    15:00 +21°C° 0 mm 2 mps 753 mmHg 46%
    16:00 +19°C° 0 mm 2 mps 753 mmHg 49%
    17:00 +18°C° 0 mm 2 mps 753 mmHg 52%
    18:00 +16°C° 0 mm 2 mps 753 mmHg 54%
    19:00 +16°C° 0 mm 2 mps 753 mmHg 55%
    20:00 +15°C° 0 mm 2 mps 753 mmHg 55%
    21:00 +15°C° 0 mm 2 mps 754 mmHg 56%
    22:00 +15°C° 0 mm 2 mps 753 mmHg 56%
    23:00 +14°C° 0 mm 3 mps 753 mmHg 57%
    Show more